Total_Precipitation_Accumulation
0.71 0.70 0.74 0.76 0.78 0.81 0.84 0.84 0.86 0.92 0.96 0.97 0.95 0.90 0.79 0.73 0.70 0.71 0.76 0.86 0.86 0.82 0.86 0.84 0.82 0.82 0.84 0.83 0.82 0.82 0.94 1.04 0.97 0.99 0.86 0.67 0.49 0.37 0.29 0.24 0.19 0.14 0.10
0.71 0.71 0.74 0.76 0.74 0.72 0.72 0.69 0.69 0.71 0.73 0.73 0.73 0.77 0.80 0.77 0.70 0.69 0.70 0.70 0.73 0.75 0.79 0.82 0.83 0.86 0.84 0.75 0.74 0.78 0.91 1.05 1.11 1.23 1.30 1.03 0.73 0.50 0.43 0.32 0.20 0.13 0.14
0.65 0.70 0.75 0.74 0.70 0.70 0.72 0.71 0.68 0.65 0.63 0.62 0.61 0.62 0.65 0.74 0.82 0.82 0.79 0.80 0.83 0.76 0.78 0.82 0.80 0.76 0.73 0.67 0.69 0.75 0.82 0.92 1.00 1.09 1.24 1.05 0.86 0.63 0.61 0.48 0.34 0.32 0.20
0.56 0.70 0.82 0.86 0.85 0.83 0.76 0.75 0.71 0.66 0.65 0.61 0.56 0.57 0.59 0.60 0.68 0.80 0.84 0.80 0.75 0.70 0.69 0.67 0.62 0.59 0.58 0.55 0.55 0.61 0.67 0.71 0.76 0.82 0.94 0.99 1.02 0.95 0.89 0.78 0.67 0.56 0.43
0.56 0.77 0.86 0.83 0.76 0.74 0.70 0.75 0.69 0.60 0.60 0.59 0.51 0.48 0.54 0.58 0.59 0.60 0.65 0.64 0.58 0.57 0.58 0.53 0.42 0.43 0.43 0.39 0.38 0.47 0.52 0.58 0.63 0.69 0.82 0.95 1.03 1.07 1.01 0.99 0.90 0.83 0.69
0.50 0.61 0.64 0.67 0.68 0.62 0.56 0.52 0.49 0.49 0.47 0.46 0.41 0.39 0.39 0.41 0.45 0.43 0.41 0.41 0.38 0.36 0.38 0.39 0.35 0.30 0.27 0.27 0.23 0.24 0.28 0.36 0.49 0.65 0.79 0.95 1.00 0.98 1.10 1.09 1.06 1.02 0.95
0.42 0.45 0.52 0.60 0.62 0.53 0.44 0.44 0.45 0.41 0.38 0.35 0.33 0.30 0.27 0.25 0.23 0.24 0.27 0.30 0.30 0.25 0.23 0.25 0.24 0.21 0.16 0.13 0.14 0.18 0.18 0.16 0.20 0.41 0.58 0.65 0.66 0.64 0.84 1.04 1.03 1.04 1.13
0.41 0.47 0.50 0.58 0.58 0.50 0.45 0.42 0.39 0.34 0.32 0.31 0.28 0.25 0.23 0.21 0.19 0.18 0.18 0.18 0.20 0.19 0.15 0.14 0.16 0.16 0.11 0.07 0.08 0.12 0.08 0.06 0.07 0.15 0.20 0.21 0.25 0.34 0.50 0.76 0.98 0.98 1.07
0.40 0.49 0.56 0.60 0.56 0.49 0.45 0.38 0.33 0.30 0.24 0.23 0.24 0.24 0.20 0.17 0.14 0.12 0.14 0.17 0.15 0.12 0.09 0.10 0.10 0.08 0.07 0.04 0.06 0.10 0.07 0.03 0.01 0.02 0.04 0.06 0.10 0.13 0.21 0.37 0.60 0.90 1.18
0.47 0.53 0.58 0.58 0.56 0.52 0.47 0.40 0.33 0.29 0.24 0.18 0.20 0.22 0.17 0.15 0.11 0.07 0.07 0.11 0.13 0.10 0.06 0.05 0.05 0.03 0.03 0.02 0.03 0.05 0.05 0.03 0.02 0.03 0.04 0.04 0.06 0.08 0.08 0.17 0.29 0.53 0.83
0.49 0.55 0.61 0.65 0.57 0.53 0.49 0.44 0.38 0.32 0.28 0.22 0.17 0.18 0.16 0.11 0.08 0.05 0.03 0.05 0.07 0.07 0.05 0.03 0.02 0.01 0.01 0.01 0.00 0.01 0.00 0.01 0.02 0.03 0.04 0.05 0.05 0.06 0.05 0.06 0.11 0.21 0.37
0.51 0.58 0.66 0.69 0.56 0.51 0.53 0.50 0.45 0.40 0.35 0.27 0.21 0.17 0.15 0.12 0.06 0.03 0.02 0.02 0.02 0.03 0.02 0.01 0.01 0.00 0.00 0.00 0.00 0.00 0.00 0.00 0.02 0.03 0.03 0.03 0.04 0.04 0.04 0.04 0.07 0.11 0.19
0.56 0.64 0.65 0.66 0.68 0.67 0.58 0.53 0.51 0.45 0.40 0.32 0.26 0.21 0.18 0.16 0.12 0.06 0.03 0.01 0.01 0.03 0.02 0.01 0.01 0.01 0.00 0.00 0.00 0.00 0.00 0.01 0.01 0.02 0.03 0.03 0.03 0.03 0.03 0.05 0.06 0.08 0.11
0.61 0.66 0.69 0.70 0.72 0.72 0.69 0.64 0.59 0.52 0.46 0.39 0.31 0.25 0.20 0.18 0.16 0.13 0.10 0.05 0.02 0.01 0.02 0.01 0.01 0.01 0.01 0.01 0.01 0.01 0.00 0.01 0.01 0.02 0.03 0.04 0.03 0.03 0.03 0.04 0.06 0.08 0.10
0.68 0.72 0.75 0.75 0.75 0.75 0.71 0.67 0.64 0.58 0.48 0.44 0.35 0.26 0.20 0.18 0.15 0.12 0.11 0.08 0.05 0.04 0.03 0.03 0.02 0.02 0.02 0.03 0.02 0.01 0.01 0.01 0.02 0.02 0.02 0.04 0.05 0.05 0.04 0.04 0.05 0.08 0.11
0.74 0.70 0.68 0.67 0.67 0.67 0.62 0.51 0.45 0.42 0.37 0.29 0.22 0.18 0.13 0.09 0.06 0.05 0.06 0.06 0.05 0.05 0.05 0.06 0.06 0.05 0.04 0.03 0.03 0.02 0.03 0.02 0.03 0.03 0.04 0.04 0.05 0.05 0.05 0.05 0.05 0.06 0.09
0.69 0.67 0.61 0.56 0.53 0.52 0.52 0.47 0.41 0.36 0.34 0.26 0.16 0.09 0.05 0.03 0.02 0.02 0.02 0.03 0.04 0.04 0.06 0.09 0.10 0.08 0.06 0.04 0.03 0.03 0.04 0.04 0.04 0.04 0.06 0.07 0.07 0.06 0.07 0.06 0.06 0.07 0.09
0.66 0.59 0.55 0.52 0.49 0.46 0.42 0.39 0.36 0.35 0.31 0.23 0.14 0.08 0.04 0.02 0.02 0.01 0.01 0.01 0.02 0.02 0.04 0.08 0.11 0.11 0.08 0.06 0.04 0.03 0.03 0.03 0.03 0.04 0.06 0.06 0.06 0.07 0.08 0.08 0.06 0.06 0.08
0.72 0.61 0.52 0.45 0.44 0.44 0.40 0.36 0.33 0.31 0.28 0.23 0.14 0.07 0.04 0.03 0.02 0.01 0.00 0.00 0.00 0.01 0.02 0.03 0.05 0.06 0.07 0.07 0.06 0.05 0.04 0.04 0.03 0.03 0.04 0.06 0.06 0.08 0.09 0.11 0.10 0.09 0.08
0.72 0.63 0.56 0.46 0.40 0.40 0.39 0.34 0.29 0.27 0.24 0.20 0.14 0.06 0.03 0.02 0.01 0.00 0.00 0.00 0.00 0.00 0.01 0.01 0.02 0.02 0.03 0.04 0.05 0.04 0.04 0.04 0.04 0.04 0.04 0.05 0.06 0.08 0.10 0.11 0.12 0.12 0.11
0.67 0.62 0.55 0.45 0.38 0.35 0.34 0.33 0.26 0.22 0.18 0.16 0.11 0.06 0.03 0.01 0.00 0.00 0.00 0.00 0.00 0.00 0.00 0.00 0.01 0.01 0.01 0.02 0.02 0.03 0.03 0.03 0.03 0.03 0.03 0.04 0.05 0.06 0.06 0.08 0.09 0.10 0.11
0.65 0.62 0.53 0.43 0.36 0.33 0.30 0.28 0.24 0.19 0.15 0.12 0.09 0.05 0.04 0.02 0.01 0.00 0.00 0.00 0.00 0.00 0.00 0.00 0.00 0.00 0.00 0.00 0.01 0.02 0.02 0.02 0.02 0.03 0.03 0.03 0.04 0.05 0.06 0.06 0.07 0.08 0.08
0.62 0.60 0.53 0.43 0.34 0.31 0.28 0.23 0.20 0.16 0.12 0.09 0.07 0.04 0.02 0.01 0.01 0.00 0.00 0.00 0.00 0.00 0.00 0.00 0.00 0.00 0.00 0.00 0.00 0.00 0.00 0.00 0.00 0.00 0.01 0.01 0.02 0.03 0.04 0.05 0.06 0.07 0.08
0.60 0.58 0.52 0.43 0.34 0.27 0.23 0.20 0.16 0.12 0.09 0.06 0.04 0.03 0.02 0.01 0.00 0.00 0.00 0.00 0.00 0.00 0.00 0.00 0.00 0.00 0.00 0.00 0.00 0.00 0.00 0.00 0.00 0.00 0.00 0.01 0.01 0.02 0.02 0.04 0.04 0.05 0.06
0.55 0.53 0.50 0.42 0.33 0.24 0.19 0.17 0.14 0.09 0.06 0.04 0.03 0.02 0.02 0.01 0.01 0.01 0.00 0.00 0.00 0.01 0.00 0.00 0.00 0.00 0.00 0.00 0.01 0.01 0.00 0.00 0.00 0.00 0.00 0.01 0.01 0.02 0.02 0.03 0.04 0.04 0.05
0.49 0.46 0.44 0.39 0.30 0.21 0.18 0.16 0.12 0.07 0.04 0.03 0.02 0.02 0.02 0.01 0.01 0.01 0.01 0.01 0.01 0.01 0.01 0.01 0.01 0.01 0.01 0.01 0.02 0.01 0.01 0.01 0.01 0.01 0.01 0.01 0.02 0.02 0.03 0.03 0.02 0.03 0.03